| time (UTC) | temp C | wind direction | speed KPH | gust KPH | rain 1hr cm | rain 24hr cm | rain mn cm | humidity % | barometer mb |
| 20260508213032 | 5 | 101 | 0.0 | 0.0 | 0.00 | 0.00 | 0.00 | 59 | 1025.4 |
| 20260508212507 | 5 | 101 | 0.0 | 0.0 | 0.00 | 0.00 | 0.00 | 58 | 1025.3 |
| 20260508212013 | 6 | 101 | 0.0 | 0.0 | 0.00 | 0.00 | 0.00 | 56 | 1025.3 |
| 20260508211525 | 6 | 101 | 0.0 | 1.6 | 0.00 | 0.00 | 0.00 | 54 | 1025.3 |
| 20260508211011 | 6 | 101 | 0.0 | 1.6 | 0.00 | 0.00 | 0.00 | 54 | 1025.3 |
| 20260508210508 | 7 | 101 | 0.0 | 3.2 | 0.00 | 0.00 | 0.00 | 52 | 1025.3 |
| 20260508210026 | 7 | 101 | 0.0 | 3.2 | 0.00 | 0.00 | 0.00 | 49 | 1025.3 |
| 20260508205514 | 8 | 101 | 1.6 | 3.2 | 0.00 | 0.00 | 0.00 | 45 | 1025.2 |
| 20260508205007 | 8 | 113 | 1.6 | 6.4 | 0.00 | 0.00 | 0.00 | 45 | 1025.1 |
| 20260508204530 | 8 | 130 | 3.2 | 9.7 | 0.00 | 0.00 | 0.00 | 43 | 1025.1 |
| 20260508204017 | 9 | 142 | 4.8 | 12.9 | 0.00 | 0.00 | 0.00 | 42 | 1025.1 |
| 20260508203509 | 9 | 126 | 4.8 | 12.9 | 0.00 | 0.00 | 0.00 | 42 | 1025.1 |
| 20260508203017 | 9 | 133 | 3.2 | 11.3 | 0.00 | 0.00 | 0.00 | 44 | 1025.0 |
| 20260508202511 | 9 | 94 | 3.2 | 11.3 | 0.00 | 0.00 | 0.00 | 45 | 1024.9 |
| 20260508202007 | 9 | 115 | 3.2 | 9.7 | 0.00 | 0.00 | 0.00 | 45 | 1024.8 |
| 20260508201513 | 9 | 121 | 3.2 | 6.4 | 0.00 | 0.00 | 0.00 | 45 | 1024.8 |
| 20260508201008 | 9 | 92 | 4.8 | 6.4 | 0.00 | 0.00 | 0.00 | 45 | 1024.7 |
| 20260508200508 | 9 | 110 | 4.8 | 6.4 | 0.00 | 0.00 | 0.00 | 1024.7 | |
| 20260508200028 | 9 | 102 | 3.2 | 9.7 | 0.00 | 0.00 | 0.00 | 45 | 1024.7 |
| 20260508195510 | 9 | 136 | 1.6 | 9.7 | 0.00 | 0.00 | 0.00 | 45 | 1024.7 |
| 20260508195009 | 9 | 124 | 1.6 | 6.4 | 0.00 | 0.00 | 0.00 | 44 | 1024.6 |
| 20260508194526 | 10 | 122 | 4.8 | 9.7 | 0.00 | 0.00 | 0.00 | 43 | 1024.6 |
| 20260508194010 | 10 | 115 | 4.8 | 11.3 | 0.00 | 0.00 | 0.00 | 43 | 1024.4 |
| 20260508193508 | 10 | 106 | 6.4 | 11.3 | 0.00 | 0.00 | 0.00 | 42 | 1024.4 |
| 20260508193026 | 10 | 101 | 3.2 | 14.5 | 0.00 | 0.00 | 0.00 | 42 | 1024.3 |
| 20260508192511 | 10 | 134 | 8.0 | 16.1 | 0.00 | 0.00 | 0.00 | 43 | 1024.4 |
| 20260508192009 | 10 | 113 | 4.8 | 16.1 | 0.00 | 0.00 | 0.00 | 43 | 1024.4 |
| 20260508191528 | 10 | 111 | 4.8 | 11.3 | 0.00 | 0.00 | 0.00 | 44 | 1024.4 |
| 20260508191008 | 10 | 111 | 6.4 | 14.5 | 0.00 | 0.00 | 0.00 | 44 | 1024.4 |
| 20260508190508 | 10 | 116 | 3.2 | 14.5 | 0.00 | 0.00 | 0.00 | 43 | 1024.4 |
| 20260508190026 | 10 | 86 | 4.8 | 14.5 | 0.00 | 0.00 | 0.00 | 43 | 1024.4 |
| 20260508185508 | 10 | 103 | 4.8 | 12.9 | 0.00 | 0.00 | 0.00 | 42 | 1024.3 |
| 20260508185009 | 11 | 122 | 8.0 | 14.5 | 0.00 | 0.00 | 0.00 | 41 | 1024.3 |
| 20260508184518 | 11 | 146 | 8.0 | 14.5 | 0.00 | 0.00 | 0.00 | 41 | 1024.2 |
| 20260508184009 | 11 | 138 | 6.4 | 20.9 | 0.00 | 0.00 | 0.00 | 42 | 1024.1 |
| 20260508183512 | 11 | 126 | 11.3 | 20.9 | 0.00 | 0.00 | 0.00 | 41 | 1024.1 |
| 20260508183026 | 11 | 109 | 12.9 | 17.7 | 0.00 | 0.00 | 0.00 | 41 | 1024.1 |
| 20260508182509 | 11 | 122 | 6.4 | 16.1 | 0.00 | 0.00 | 0.00 | 40 | 1024.0 |
| 20260508182010 | 11 | 127 | 9.7 | 16.1 | 0.00 | 0.00 | 0.00 | 38 | 1024.1 |
| 20260508181527 | 11 | 132 | 9.7 | 22.5 | 0.00 | 0.00 | 0.00 | 38 | 1024.0 |
| 20260508181011 | 12 | 146 | 9.7 | 22.5 | 0.00 | 0.00 | 0.00 | 38 | 1024.0 |
| 20260508180512 | 12 | 144 | 11.3 | 20.9 | 0.00 | 0.00 | 0.00 | 39 | 1024.0 |
| 20260508180027 | 12 | 97 | 11.3 | 20.9 | 0.00 | 0.00 | 0.00 | 39 | 1023.9 |
| 20260508175510 | 12 | 148 | 12.9 | 20.9 | 0.00 | 0.00 | 0.00 | 39 | 1023.9 |
| 20260508175007 | 12 | 126 | 8.0 | 22.5 | 0.00 | 0.00 | 0.00 | 40 | 1023.8 |
| 20260508174524 | 12 | 138 | 6.4 | 22.5 | 0.00 | 0.00 | 0.00 | 39 | 1023.7 |
| 20260508174013 | 12 | 105 | 9.7 | 19.3 | 0.00 | 0.00 | 0.00 | 39 | 1023.7 |
| 20260508173508 | 12 | 165 | 11.3 | 19.3 | 0.00 | 0.00 | 0.00 | 38 | 1023.6 |
| 20260508173024 | 13 | 140 | 16.1 | 19.3 | 0.00 | 0.00 | 0.00 | 37 | 1023.6 |
| 20260508172508 | 13 | 102 | 12.9 | 19.3 | 0.00 | 0.00 | 0.00 | 36 | 1023.6 |
| 20260508172018 | 13 | 145 | 8.0 | 19.3 | 0.00 | 0.00 | 0.00 | 35 | 1023.6 |
| 20260508171528 | 13 | 101 | 4.8 | 19.3 | 0.00 | 0.00 | 0.00 | 38 | 1023.5 |
| 20260508171013 | 13 | 132 | 8.0 | 19.3 | 0.00 | 0.00 | 0.00 | 38 | 1023.5 |
| 20260508170511 | 13 | 139 | 11.3 | 19.3 | 0.00 | 0.00 | 0.00 | 37 | 1023.5 |
| 20260508170018 | 13 | 142 | 12.9 | 19.3 | 0.00 | 0.00 | 0.00 | 36 | 1023.4 |
| 20260508165510 | 13 | 144 | 9.7 | 19.3 | 0.00 | 0.00 | 0.00 | 36 | 1023.4 |
| 20260508165007 | 13 | 130 | 14.5 | 19.3 | 0.00 | 0.00 | 0.00 | 35 | 1023.4 |
| 20260508164528 | 13 | 111 | 14.5 | 20.9 | 0.00 | 0.00 | 0.00 | 34 | 1023.4 |
| 20260508164015 | 13 | 180 | 12.9 | 24.1 | 0.00 | 0.00 | 0.00 | 34 | 1023.3 |
| 20260508163507 | 13 | 112 | 11.3 | 24.1 | 0.00 | 0.00 | 0.00 | 33 | 1023.4 |
| 20260508163026 | 13 | 145 | 9.7 | 24.1 | 0.00 | 0.00 | 0.00 | 33 | 1023.4 |
| 20260508162512 | 13 | 147 | 9.7 | 24.1 | 0.00 | 0.00 | 0.00 | 33 | 1023.3 |
| 20260508162008 | 14 | 173 | 9.7 | 19.3 | 0.00 | 0.00 | 0.00 | 33 | 1023.3 |
| 20260508161528 | 14 | 126 | 12.9 | 22.5 | 0.00 | 0.00 | 0.00 | 33 | 1023.3 |
| 20260508161012 | 14 | 158 | 9.7 | 24.1 | 0.00 | 0.00 | 0.00 | 33 | 1023.3 |
| 20260508160507 | 14 | 151 | 14.5 | 24.1 | 0.00 | 0.00 | 0.00 | 32 | 1023.3 |
| 20260508160048 | 14 | 132 | 11.3 | 19.3 | 0.00 | 0.00 | 0.00 | 32 | 1023.4 |
| 20260508155513 | 14 | 163 | 11.3 | 19.3 | 0.00 | 0.00 | 0.00 | 31 | 1023.2 |
| 20260508155008 | 14 | 123 | 9.7 | 17.7 | 0.00 | 0.00 | 0.00 | 31 | 1023.1 |
| 20260508154526 | 15 | 160 | 4.8 | 17.7 | 0.00 | 0.00 | 0.00 | 31 | 1023.1 |
| 20260508154010 | 14 | 139 | 12.9 | 20.9 | 0.00 | 0.00 | 0.00 | 30 | 1023.1 |
| 20260508153510 | 14 | 138 | 16.1 | 25.7 | 0.00 | 0.00 | 0.00 | 29 | 1023.1 |
| 20260508153028 | 14 | 152 | 14.5 | 25.7 | 0.00 | 0.00 | 0.00 | 28 | 1023.1 |
| 20260508152512 | 15 | 202 | 12.9 | 19.3 | 0.00 | 0.00 | 0.00 | 31 | 1023.3 |
| 20260508152016 | 14 | 193 | 12.9 | 22.5 | 0.00 | 0.00 | 0.00 | 29 | 1023.4 |
| 20260508151523 | 14 | 141 | 14.5 | 22.5 | 0.00 | 0.00 | 0.00 | 30 | 1023.3 |
| 20260508151010 | 15 | 141 | 14.5 | 20.9 | 0.00 | 0.00 | 0.00 | 30 | 1023.3 |
| 20260508150509 | 14 | 130 | 12.9 | 19.3 | 0.00 | 0.00 | 0.00 | 30 | 1023.4 |
| 20260508150034 | 14 | 140 | 12.9 | 22.5 | 0.00 | 0.00 | 0.00 | 31 | 1023.4 |
| 20260508145511 | 15 | 127 | 14.5 | 22.5 | 0.00 | 0.00 | 0.00 | 30 | 1023.4 |
| 20260508145017 | 14 | 140 | 11.3 | 19.3 | 0.00 | 0.00 | 0.00 | 29 | 1023.5 |
| 20260508144527 | 15 | 157 | 9.7 | 20.9 | 0.00 | 0.00 | 0.00 | 31 | 1023.5 |
| 20260508144016 | 15 | 146 | 8.0 | 20.9 | 0.00 | 0.00 | 0.00 | 31 | 1023.5 |
| 20260508143516 | 15 | 169 | 12.9 | 22.5 | 0.00 | 0.00 | 0.00 | 30 | 1023.6 |
| 20260508143031 | 15 | 144 | 11.3 | 22.5 | 0.00 | 0.00 | 0.00 | 31 | 1023.6 |
| 20260508142512 | 15 | 114 | 9.7 | 19.3 | 0.00 | 0.00 | 0.00 | 28 | 1023.6 |
| 20260508142009 | 15 | 132 | 9.7 | 19.3 | 0.00 | 0.00 | 0.00 | 29 | 1023.6 |
| 20260508141536 | 15 | 134 | 11.3 | 20.9 | 0.00 | 0.00 | 0.00 | 29 | 1023.6 |
| 20260508141010 | 15 | 153 | 11.3 | 20.9 | 0.00 | 0.00 | 0.00 | 30 | 1023.7 |
| 20260508140510 | 15 | 161 | 11.3 | 22.5 | 0.00 | 0.00 | 0.00 | 30 | 1023.8 |
| 20260508140024 | 15 | 141 | 12.9 | 22.5 | 0.00 | 0.00 | 0.00 | 32 | 1023.9 |
| 20260508135517 | 15 | 153 | 8.0 | 19.3 | 0.00 | 0.00 | 0.00 | 32 | 1023.8 |
| 20260508135012 | 15 | 144 | 11.3 | 19.3 | 0.00 | 0.00 | 0.00 | 33 | 1023.8 |
| 20260508134531 | 15 | 178 | 11.3 | 20.9 | 0.00 | 0.00 | 0.00 | 32 | 1023.8 |
| 20260508134014 | 15 | 152 | 14.5 | 22.5 | 0.00 | 0.00 | 0.00 | 35 | 1023.9 |
| 20260508133512 | 15 | 151 | 14.5 | 22.5 | 0.00 | 0.00 | 0.00 | 33 | 1023.8 |
| 20260508133028 | 15 | 130 | 11.3 | 20.9 | 0.00 | 0.00 | 0.00 | 33 | 1023.8 |
| 20260508132512 | 15 | 149 | 8.0 | 24.1 | 0.00 | 0.00 | 0.00 | 35 | 1023.8 |
| 20260508132011 | 15 | 136 | 14.5 | 25.7 | 0.00 | 0.00 | 0.00 | 34 | 1023.8 |
| 20260508131529 | 15 | 111 | 9.7 | 25.7 | 0.00 | 0.00 | 0.00 | 35 | 1023.7 |
| 20260508131012 | 15 | 159 | 11.3 | 22.5 | 0.00 | 0.00 | 0.00 | 35 | 1023.8 |
| 20260508130511 | 15 | 144 | 14.5 | 25.7 | 0.00 | 0.00 | 0.00 | 36 | 1023.9 |
| 20260508130028 | 15 | 149 | 14.5 | 25.7 | 0.00 | 0.00 | 0.00 | 35 | 1023.9 |
| 20260508125510 | 15 | 145 | 16.1 | 25.7 | 0.00 | 0.00 | 0.00 | 35 | 1023.8 |
| 20260508125010 | 15 | 144 | 12.9 | 20.9 | 0.00 | 0.00 | 0.00 | 35 | 1023.9 |
| 20260508124527 | 15 | 148 | 11.3 | 19.3 | 0.00 | 0.00 | 0.00 | 35 | 1023.8 |
| 20260508124015 | 15 | 140 | 12.9 | 20.9 | 0.00 | 0.00 | 0.00 | 34 | 1023.8 |
| 20260508123507 | 15 | 143 | 12.9 | 20.9 | 0.00 | 0.00 | 0.00 | 35 | 1023.9 |
| 20260508123028 | 15 | 142 | 9.7 | 25.7 | 0.00 | 0.00 | 0.00 | 34 | 1023.8 |
| 20260508122514 | 15 | 166 | 11.3 | 25.7 | 0.00 | 0.00 | 0.00 | 34 | 1023.8 |
| 20260508122011 | 15 | 123 | 11.3 | 20.9 | 0.00 | 0.00 | 0.00 | 34 | 1023.8 |
| 20260508121549 | 15 | 162 | 12.9 | 20.9 | 0.00 | 0.00 | 0.00 | 34 | 1023.9 |
| 20260508121010 | 15 | 129 | 12.9 | 22.5 | 0.00 | 0.00 | 0.00 | 33 | 1023.8 |
| 20260508120514 | 15 | 146 | 12.9 | 22.5 | 0.00 | 0.00 | 0.00 | 34 | 1023.7 |
| 20260508120024 | 15 | 148 | 11.3 | 22.5 | 0.00 | 0.00 | 0.00 | 35 | 1023.8 |
| 20260508115512 | 15 | 99 | 12.9 | 22.5 | 0.00 | 0.00 | 0.00 | 33 | 1023.9 |
| 20260508115010 | 14 | 150 | 14.5 | 20.9 | 0.00 | 0.00 | 0.00 | 33 | 1023.8 |
| 20260508114528 | 15 | 141 | 9.7 | 20.9 | 0.00 | 0.00 | 0.00 | 35 | 1023.8 |
| 20260508114009 | 15 | 181 | 12.9 | 19.3 | 0.00 | 0.00 | 0.00 | 34 | 1023.9 |
| 20260508113512 | 15 | 132 | 12.9 | 19.3 | 0.00 | 0.00 | 0.00 | 33 | 1023.9 |
| 20260508113028 | 15 | 101 | 9.7 | 19.3 | 0.00 | 0.00 | 0.00 | 33 | 1023.9 |
| 20260508112509 | 15 | 94 | 8.0 | 17.7 | 0.00 | 0.00 | 0.00 | 34 | 1023.9 |
| 20260508112009 | 15 | 147 | 11.3 | 19.3 | 0.00 | 0.00 | 0.00 | 35 | 1024.0 |
| 20260508111526 | 14 | 138 | 11.3 | 19.3 | 0.00 | 0.00 | 0.00 | 35 | 1024.0 |
| 20260508111010 | 15 | 174 | 11.3 | 19.3 | 0.00 | 0.00 | 0.00 | 36 | 1024.0 |
| 20260508110511 | 14 | 134 | 11.3 | 19.3 | 0.00 | 0.00 | 0.00 | 36 | 1023.9 |
| 20260508110031 | 15 | 191 | 9.7 | 16.1 | 0.00 | 0.00 | 0.00 | 36 | 1024.0 |
| 20260508105516 | 14 | 176 | 11.3 | 19.3 | 0.00 | 0.00 | 0.00 | 37 | 1024.0 |
| 20260508105013 | 14 | 164 | 4.8 | 20.9 | 0.00 | 0.00 | 0.00 | 36 | 1024.0 |
| 20260508104527 | 13 | 173 | 11.3 | 20.9 | 0.00 | 0.00 | 0.00 | 36 | 1024.1 |
| 20260508104010 | 13 | 148 | 9.7 | 20.9 | 0.00 | 0.00 | 0.00 | 36 | 1024.1 |
| 20260508103510 | 13 | 113 | 12.9 | 19.3 | 0.00 | 0.00 | 0.00 | 35 | 1024.1 |
| 20260508103026 | 13 | 132 | 11.3 | 17.7 | 0.00 | 0.00 | 0.00 | 36 | 1024.0 |
| 20260508102512 | 13 | 140 | 11.3 | 22.5 | 0.00 | 0.00 | 0.00 | 38 | 1024.0 |
| 20260508102012 | 13 | 141 | 8.0 | 22.5 | 0.00 | 0.00 | 0.00 | 39 | 1024.0 |
| 20260508101525 | 13 | 142 | 6.4 | 24.1 | 0.00 | 0.00 | 0.00 | 37 | 1024.0 |
| 20260508101013 | 13 | 165 | 12.9 | 24.1 | 0.00 | 0.00 | 0.00 | 38 | 1024.0 |
| 20260508100508 | 13 | 155 | 14.5 | 22.5 | 0.00 | 0.00 | 0.00 | 38 | 1024.1 |
| 20260508100023 | 13 | 150 | 11.3 | 19.3 | 0.00 | 0.00 | 0.00 | 38 | 1024.0 |
| 20260508095511 | 13 | 160 | 12.9 | 22.5 | 0.00 | 0.00 | 0.00 | 38 | 1024.0 |
| 20260508095016 | 13 | 92 | 12.9 | 22.5 | 0.00 | 0.00 | 0.00 | 36 | 1024.0 |
| 20260508094522 | 13 | 119 | 11.3 | 22.5 | 0.00 | 0.00 | 0.00 | 38 | 1024.0 |
| 20260508094009 | 13 | 136 | 11.3 | 22.5 | 0.00 | 0.00 | 0.00 | 39 | 1024.0 |
| 20260508093507 | 12 | 140 | 14.5 | 20.9 | 0.00 | 0.00 | 0.00 | 39 | 1024.0 |
| 20260508093023 | 12 | 164 | 16.1 | 22.5 | 0.00 | 0.00 | 0.00 | 37 | 1024.0 |
| 20260508092509 | 12 | 171 | 14.5 | 22.5 | 0.00 | 0.00 | 0.00 | 37 | 1024.1 |
| 20260508092011 | 12 | 151 | 11.3 | 22.5 | 0.00 | 0.00 | 0.00 | 38 | 1024.0 |
| 20260508091513 | 12 | 128 | 9.7 | 22.5 | 0.00 | 0.00 | 0.00 | 47 | 1024.0 |
| 20260508091007 | 12 | 148 | 16.1 | 22.5 | 0.00 | 0.00 | 0.00 | 50 | 1024.0 |
| 20260508090511 | 12 | 146 | 14.5 | 24.1 | 0.00 | 0.00 | 0.00 | 52 | 1024.0 |
| 20260508090011 | 11 | 169 | 12.9 | 24.1 | 0.00 | 0.00 | 0.00 | 56 | 1024.0 |
| 20260508085514 | 12 | 137 | 14.5 | 22.5 | 0.00 | 0.00 | 0.00 | 57 | 1024.1 |
| 20260508085010 | 12 | 117 | 11.3 | 20.9 | 0.00 | 0.00 | 0.00 | 60 | 1024.0 |
| 20260508084528 | 11 | 120 | 12.9 | 24.1 | 0.00 | 0.00 | 0.00 | 58 | 1024.0 |
| 20260508084008 | 11 | 74 | 12.9 | 24.1 | 0.00 | 0.00 | 0.00 | 58 | 1023.9 |
| 20260508083515 | 11 | 169 | 11.3 | 19.3 | 0.00 | 0.00 | 0.00 | 57 | 1023.9 |
| 20260508083110 | 12 | 127 | 11.3 | 19.3 | 0.00 | 0.00 | 0.00 | 58 | 1023.8 |
| 20260508082507 | 11 | 138 | 12.9 | 19.3 | 0.00 | 0.00 | 0.00 | 57 | 1023.7 |
| 20260508082011 | 11 | 170 | 9.7 | 20.9 | 0.00 | 0.00 | 0.00 | 57 | 1023.7 |
| 20260508081526 | 11 | 85 | 11.3 | 20.9 | 0.00 | 0.00 | 0.00 | 61 | 1023.7 |
| 20260508081007 | 11 | 123 | 12.9 | 19.3 | 0.00 | 0.00 | 0.00 | 60 | 1023.7 |
| 20260508080506 | 11 | 144 | 14.5 | 19.3 | 0.00 | 0.00 | 0.00 | 60 | 1023.7 |
| 20260508080021 | 11 | 103 | 14.5 | 20.9 | 0.00 | 0.00 | 0.00 | 60 | 1023.8 |
| 20260508075512 | 11 | 145 | 6.4 | 27.4 | 0.00 | 0.00 | 0.00 | 60 | 1023.7 |
| 20260508075003 | 11 | 161 | 11.3 | 27.4 | 0.00 | 0.00 | 0.00 | 60 | 1023.7 |
| 20260508074519 | 11 | 137 | 11.3 | 20.9 | 0.00 | 0.00 | 0.00 | 58 | 1023.7 |
| 20260508074010 | 11 | 152 | 14.5 | 19.3 | 0.00 | 0.00 | 0.00 | 58 | 1023.6 |
| 20260508073511 | 10 | 120 | 8.0 | 24.1 | 0.00 | 0.00 | 0.00 | 61 | 1023.5 |
| 20260508073012 | 10 | 139 | 16.1 | 24.1 | 0.00 | 0.00 | 0.00 | 60 | 1023.4 |
| 20260508072511 | 10 | 112 | 14.5 | 22.5 | 0.00 | 0.00 | 0.00 | 60 | 1023.4 |
| 20260508072009 | 10 | 149 | 11.3 | 20.9 | 0.00 | 0.00 | 0.00 | 62 | 1023.4 |
| 20260508071514 | 10 | 148 | 14.5 | 22.5 | 0.00 | 0.00 | 0.00 | 61 | 1023.4 |
| 20260508071012 | 10 | 171 | 12.9 | 22.5 | 0.00 | 0.00 | 0.00 | 62 | 1023.3 |
| 20260508070508 | 10 | 136 | 12.9 | 19.3 | 0.00 | 0.00 | 0.00 | 65 | 1023.2 |
| 20260508070027 | 10 | 113 | 12.9 | 19.3 | 0.00 | 0.00 | 0.00 | 66 | 1023.1 |
| 20260508065507 | 10 | 171 | 3.2 | 12.9 | 0.00 | 0.00 | 0.00 | 69 | 1023.0 |
| 20260508065010 | 10 | 136 | 4.8 | 16.1 | 0.00 | 0.00 | 0.00 | 69 | 1023.1 |
| 20260508064542 | 10 | 124 | 8.0 | 16.1 | 0.00 | 0.00 | 0.00 | 73 | 1022.9 |
| 20260508064010 | 10 | 122 | 8.0 | 16.1 | 0.00 | 0.00 | 0.00 | 76 | 1022.9 |
| 20260508063507 | 10 | 138 | 6.4 | 16.1 | 0.00 | 0.00 | 0.00 | 79 | 1022.9 |
| 20260508063022 | 10 | 121 | 8.0 | 12.9 | 0.00 | 0.00 | 0.00 | 78 | 1022.8 |
| 20260508062510 | 10 | 119 | 8.0 | 12.9 | 0.00 | 0.00 | 0.00 | 77 | 1022.7 |
| 20260508062010 | 10 | 111 | 6.4 | 12.9 | 0.00 | 0.00 | 0.00 | 77 | 1022.6 |
| 20260508061524 | 10 | 134 | 1.6 | 11.3 | 0.00 | 0.00 | 0.00 | 78 | 1022.5 |
| 20260508061011 | 10 | 117 | 6.4 | 11.3 | 0.00 | 0.00 | 0.00 | 80 | 1022.5 |
| 20260508060513 | 10 | 72 | 4.8 | 9.7 | 0.00 | 0.00 | 0.00 | 81 | 1022.4 |
| 20260508060022 | 10 | 73 | 3.2 | 6.4 | 0.00 | 0.00 | 0.00 | 81 | 1022.3 |
| 20260508055514 | 9 | 89 | 4.8 | 6.4 | 0.00 | 0.00 | 0.00 | 82 | 1022.3 |
| 20260508055008 | 9 | 93 | 3.2 | 6.4 | 0.00 | 0.00 | 0.00 | 82 | 1022.3 |
| 20260508054517 | 8 | 65 | 1.6 | 6.4 | 0.00 | 0.00 | 0.00 | 83 | 1022.2 |
| 20260508054010 | 8 | 59 | 3.2 | 6.4 | 0.00 | 0.00 | 0.00 | 82 | 1022.2 |
| 20260508053508 | 8 | 76 | 0.0 | 8.0 | 0.00 | 0.00 | 0.00 | 81 | 1022.2 |
| 20260508053028 | 8 | 79 | 4.8 | 8.0 | 0.00 | 0.00 | 0.00 | 81 | 1022.2 |
| 20260508052515 | 7 | 76 | 0.0 | 3.2 | 0.00 | 0.00 | 0.00 | 82 | 1022.3 |
| 20260508052012 | 7 | 261 | 0.0 | 0.0 | 0.00 | 0.00 | 0.00 | 84 | 1022.2 |
| 20260508051525 | 6 | 261 | 0.0 | 0.0 | 0.00 | 0.00 | 0.00 | 85 | 1022.2 |
| 20260508051008 | 6 | 261 | 0.0 | 0.0 | 0.00 | 0.00 | 0.00 | 86 | 1022.2 |
| 20260508050510 | 6 | 261 | 0.0 | 0.0 | 0.00 | 0.00 | 0.00 | 87 | 1022.1 |
| 20260508050029 | 5 | 261 | 0.0 | 0.0 | 0.00 | 0.00 | 0.00 | 88 | 1022.1 |
| 20260508045510 | 4 | 261 | 0.0 | 0.0 | 0.00 | 0.00 | 0.00 | 88 | 1022.1 |
| 20260508045011 | 3 | 261 | 0.0 | 0.0 | 0.00 | 0.00 | 0.00 | 90 | 1022.0 |
| 20260508044523 | 3 | 261 | 0.0 | 0.0 | 0.00 | 0.00 | 0.00 | 89 | 1022.0 |
| 20260508044011 | 3 | 261 | 0.0 | 0.0 | 0.00 | 0.00 | 0.00 | 88 | 1021.9 |
| 20260508043508 | 2 | 319 | 0.0 | 0.0 | 0.00 | 0.00 | 0.00 | 89 | 1021.9 |
| 20260508043025 | 2 | 319 | 0.0 | 0.0 | 0.00 | 0.00 | 0.00 | 88 | 1021.8 |
| 20260508042509 | 2 | 319 | 0.0 | 0.0 | 0.00 | 0.00 | 0.00 | 88 | 1021.8 |
| 20260508042008 | 2 | 319 | 0.0 | 0.0 | 0.00 | 0.00 | 0.00 | 89 | 1021.7 |
| 20260508041521 | 2 | 319 | 0.0 | 0.0 | 0.00 | 0.00 | 0.00 | 89 | 1021.7 |
| 20260508041010 | 2 | 319 | 0.0 | 0.0 | 0.00 | 0.00 | 0.00 | 87 | 1021.6 |
| 20260508040509 | 2 | 319 | 0.0 | 0.0 | 0.00 | 0.00 | 0.00 | 88 | 1021.6 |
| 20260508040018 | 2 | 319 | 0.0 | 0.0 | 0.00 | 0.00 | 0.00 | 89 | 1021.7 |
| 20260508035516 | 2 | 319 | 0.0 | 0.0 | 0.00 | 0.00 | 0.00 | 89 | 1021.7 |
| 20260508035014 | 1 | 319 | 0.0 | 0.0 | 0.00 | 0.00 | 0.00 | 88 | 1021.7 |
| 20260508034529 | 1 | 319 | 0.0 | 0.0 | 0.00 | 0.00 | 0.00 | 88 | 1021.6 |
| 20260508034010 | 1 | 319 | 0.0 | 0.0 | 0.00 | 0.00 | 0.00 | 88 | 1021.7 |
| 20260508033510 | 1 | 332 | 0.0 | 0.0 | 0.00 | 0.00 | 0.00 | 88 | 1021.6 |
| 20260508033024 | 1 | 332 | 0.0 | 0.0 | 0.00 | 0.00 | 0.00 | 88 | 1021.6 |
| 20260508032511 | 1 | 332 | 0.0 | 0.0 | 0.00 | 0.00 | 0.00 | 87 | 1021.6 |
| 20260508032011 | 1 | 332 | 0.0 | 0.0 | 0.00 | 0.00 | 0.00 | 86 | 1021.6 |
| 20260508031527 | 1 | 332 | 0.0 | 0.0 | 0.00 | 0.00 | 0.00 | 87 | 1021.5 |
| 20260508031012 | 1 | 332 | 0.0 | 0.0 | 0.00 | 0.00 | 0.00 | 87 | 1021.5 |
| 20260508030507 | 1 | 331 | 0.0 | 0.0 | 0.00 | 0.00 | 0.00 | 87 | 1021.5 |
| 20260508030024 | 1 | 332 | 0.0 | 0.0 | 0.00 | 0.00 | 0.00 | 87 | 1021.5 |
| 20260508025510 | 1 | 332 | 0.0 | 0.0 | 0.00 | 0.00 | 0.00 | 87 | 1021.4 |
| 20260508025008 | 1 | 332 | 0.0 | 0.0 | 0.00 | 0.00 | 0.00 | 87 | 1021.4 |
| 20260508024526 | 1 | 332 | 0.0 | 0.0 | 0.00 | 0.00 | 0.00 | 86 | 1021.3 |
| 20260508024011 | 1 | 332 | 0.0 | 0.0 | 0.00 | 0.00 | 0.00 | 86 | 1021.3 |
| 20260508023510 | 1 | 332 | 0.0 | 0.0 | 0.00 | 0.00 | 0.00 | 86 | 1021.3 |
| 20260508023030 | 1 | 332 | 0.0 | 0.0 | 0.00 | 0.00 | 0.00 | 87 | 1021.2 |
| 20260508022509 | 1 | 332 | 0.0 | 0.0 | 0.00 | 0.00 | 0.00 | 86 | 1021.2 |
| 20260508022015 | 1 | 332 | 0.0 | 0.0 | 0.00 | 0.00 | 0.00 | 86 | 1021.2 |
| 20260508021528 | 1 | 332 | 0.0 | 0.0 | 0.00 | 0.00 | 0.00 | 86 | 1021.2 |
| 20260508021011 | 1 | 332 | 0.0 | 0.0 | 0.00 | 0.00 | 0.00 | 86 | 1021.2 |
| 20260508020509 | 1 | 332 | 0.0 | 0.0 | 0.00 | 0.00 | 0.00 | 87 | 1021.2 |
| 20260508020028 | 1 | 327 | 0.0 | 0.0 | 0.00 | 0.00 | 0.00 | 86 | 1021.2 |
| 20260508015507 | 1 | 300 | 0.0 | 0.0 | 0.00 | 0.00 | 0.00 | 86 | 1021.1 |
| 20260508015009 | 1 | 300 | 0.0 | 0.0 | 0.00 | 0.00 | 0.00 | 87 | 1021.0 |
| 20260508014533 | 1 | 300 | 0.0 | 0.0 | 0.00 | 0.00 | 0.00 | 86 | 1021.0 |
| 20260508014011 | 2 | 300 | 0.0 | 0.0 | 0.00 | 0.00 | 0.00 | 87 | 1020.9 |
| 20260508013507 | 2 | 300 | 0.0 | 0.0 | 0.00 | 0.00 | 0.00 | 86 | 1020.8 |
| 20260508013024 | 2 | 300 | 0.0 | 0.0 | 0.00 | 0.00 | 0.00 | 89 | 1020.8 |
| 20260508012515 | 1 | 300 | 0.0 | 0.0 | 0.00 | 0.00 | 0.00 | 87 | 1020.8 |
| 20260508012011 | 2 | 300 | 0.0 | 0.0 | 0.00 | 0.00 | 0.00 | 88 | 1020.8 |
| 20260508011533 | 1 | 300 | 0.0 | 0.0 | 0.00 | 0.00 | 0.00 | 88 | 1020.7 |
| 20260508011015 | 2 | 300 | 0.0 | 0.0 | 0.00 | 0.00 | 0.00 | 88 | 1020.8 |
| 20260508010507 | 1 | 300 | 0.0 | 0.0 | 0.00 | 0.00 | 0.00 | 87 | 1020.8 |
| 20260508010027 | 2 | 300 | 0.0 | 0.0 | 0.00 | 0.00 | 0.00 | 87 | 1020.8 |
| 20260508005508 | 2 | 300 | 0.0 | 0.0 | 0.00 | 0.00 | 0.00 | 87 | 1020.7 |
| 20260508005006 | 2 | 300 | 0.0 | 0.0 | 0.00 | 0.00 | 0.00 | 87 | 1020.7 |
| 20260508004517 | 2 | 300 | 0.0 | 0.0 | 0.00 | 0.00 | 0.00 | 87 | 1020.7 |
| 20260508004011 | 2 | 300 | 0.0 | 0.0 | 0.00 | 0.00 | 0.00 | 87 | 1020.7 |
| 20260508003502 | 2 | 300 | 0.0 | 0.0 | 0.00 | 0.00 | 0.00 | 86 | 1020.6 |
| 20260508003014 | 2 | 300 | 0.0 | 0.0 | 0.00 | 0.00 | 0.00 | 86 | 1020.6 |
| 20260508002509 | 2 | 300 | 0.0 | 0.0 | 0.00 | 0.00 | 0.00 | 86 | 1020.6 |
| 20260508002005 | 2 | 300 | 0.0 | 0.0 | 0.00 | 0.00 | 0.00 | 86 | 1020.6 |
| 20260508001513 | 2 | 300 | 0.0 | 0.0 | 0.00 | 0.00 | 0.00 | 86 | 1020.7 |
| 20260508001008 | 2 | 300 | 0.0 | 0.0 | 0.00 | 0.00 | 0.00 | 86 | 1020.6 |
| 20260508000518 | 2 | 300 | 0.0 | 0.0 | 0.00 | 0.00 | 0.00 | 86 | 1020.7 |
| 20260508000007 | 2 | 300 | 0.0 | 0.0 | 0.00 | 0.00 | 0.00 | 86 | 1020.7 |
| 20260507235508 | 2 | 300 | 0.0 | 0.0 | 0.00 | 0.00 | 0.00 | 87 | 1020.7 |
| 20260507235008 | 2 | 300 | 0.0 | 0.0 | 0.00 | 0.00 | 0.00 | 87 | 1020.6 |
| 20260507234503 | 2 | 300 | 0.0 | 0.0 | 0.00 | 0.00 | 0.00 | 85 | 1020.6 |
| 20260507234003 | 2 | 300 | 0.0 | 0.0 | 0.00 | 0.00 | 0.00 | 86 | 1020.6 |
| 20260507233507 | 2 | 313 | 0.0 | 0.0 | 0.00 | 0.00 | 0.00 | 86 | 1020.6 |
| 20260507233024 | 2 | 313 | 0.0 | 0.0 | 0.00 | 0.00 | 0.00 | 86 | 1020.6 |
| 20260507232505 | 2 | 313 | 0.0 | 0.0 | 0.00 | 0.00 | 0.00 | 85 | 1020.6 |
| 20260507232006 | 2 | 313 | 0.0 | 0.0 | 0.00 | 0.00 | 0.00 | 85 | 1020.6 |
| 20260507231519 | 2 | 313 | 0.0 | 1.6 | 0.00 | 0.00 | 0.00 | 85 | 1020.6 |
| 20260507231003 | 3 | 313 | 0.0 | 1.6 | 0.00 | 0.00 | 0.00 | 85 | 1020.6 |
| 20260507230504 | 2 | 313 | 1.6 | 3.2 | 0.00 | 0.00 | 0.00 | 85 | 1020.6 |
| 20260507230019 | 3 | 313 | 1.6 | 3.2 | 0.00 | 0.00 | 0.00 | 85 | 1020.7 |
| 20260507225508 | 3 | 313 | 0.0 | 1.6 | 0.00 | 0.00 | 0.00 | 85 | 1020.6 |
| 20260507225008 | 3 | 313 | 1.6 | 1.6 | 0.00 | 0.00 | 0.00 | 85 | 1020.6 |
| 20260507224516 | 3 | 313 | 1.6 | 1.6 | 0.00 | 0.00 | 0.00 | 85 | 1020.5 |
| 20260507224007 | 3 | 332 | 1.6 | 1.6 | 0.00 | 0.00 | 0.00 | 84 | 1020.5 |
| 20260507223508 | 3 | 332 | 0.0 | 0.0 | 0.00 | 0.00 | 0.00 | 84 | 1020.4 |
| 20260507223013 | 3 | 332 | 0.0 | 0.0 | 0.00 | 0.00 | 0.00 | 84 | 1020.4 |
| 20260507222508 | 3 | 332 | 0.0 | 0.0 | 0.00 | 0.00 | 0.00 | 85 | 1020.4 |
| 20260507222011 | 3 | 332 | 0.0 | 0.0 | 0.00 | 0.00 | 0.00 | 84 | 1020.3 |
| 20260507221508 | 3 | 332 | 0.0 | 0.0 | 0.00 | 0.00 | 0.00 | 83 | 1020.4 |
| 20260507221007 | 3 | 332 | 0.0 | 0.0 | 0.00 | 0.00 | 0.00 | 83 | 1020.3 |
| 20260507220510 | 3 | 332 | 0.0 | 0.0 | 0.00 | 0.00 | 0.00 | 85 | 1020.3 |
| 20260507220027 | 3 | 332 | 0.0 | 0.0 | 0.00 | 0.00 | 0.00 | 83 | 1020.3 |
| 20260507215511 | 3 | 332 | 0.0 | 0.0 | 0.00 | 0.00 | 0.00 | 83 | 1020.3 |
| 20260507215013 | 3 | 332 | 0.0 | 0.0 | 0.00 | 0.00 | 0.00 | 83 | 1020.2 |
| 20260507214524 | 3 | 332 | 0.0 | 0.0 | 0.00 | 0.00 | 0.00 | 83 | 1020.3 |
| 20260507214008 | 3 | 332 | 0.0 | 0.0 | 0.00 | 0.00 | 0.00 | 83 | 1020.2 |
| 20260507213515 | 4 | 332 | 0.0 | 0.0 | 0.00 | 0.00 | 0.00 | 83 | 1020.2 |